ENT4882 LTAI-EPLL

Flight info

Callsign ENT4882
Flight time 2h 40m
Altitude 36000
Route EKNUD1K/18L EKNUD UT337 OSVEL UL619 MAKOL DCT PELUR/N0449F380 DCT EDETA DCT KENIN DCT KOTEK N133 VIDEV
Aircraft B38M/M-SDGHIJ1J4RWXY/EB1

Departure

Time 2026-05-09 11:53
Airport Antalya International Airport (LTAI)

Arrival

Time 2026-05-09 14:33
Airport Łódź Władysław Reymont Airport (EPLL)
Time Latitude Longitude Altitude Speed Heading
2026-05-09 11:00 36.89782 30.80238 194 ft 0 kts 284°
2026-05-09 11:40 36.89771 30.80292 201 ft 4 kts 285°
2026-05-09 11:40 36.89761 30.80318 209 ft 4 kts 332°
2026-05-09 11:40 36.89739 30.80325 206 ft 4 kts
2026-05-09 11:40 36.89714 30.80317 199 ft 3 kts
2026-05-09 11:41 36.89692 30.80313 204 ft 4 kts
2026-05-09 11:41 36.89671 30.80310 205 ft 4 kts
2026-05-09 11:41 36.89643 30.80308 202 ft 4 kts
2026-05-09 11:41 36.89618 30.80300 204 ft 4 kts 29°
2026-05-09 11:42 36.89599 30.80282 209 ft 4 kts 60°
2026-05-09 11:42 36.89595 30.80251 207 ft 4 kts 96°
2026-05-09 11:42 36.89598 30.80222 202 ft 4 kts 102°
2026-05-09 11:42 36.89602 30.80201 203 ft 1 kts 99°
2026-05-09 11:45 36.89600 30.80213 198 ft 4 kts 99°
2026-05-09 11:45 36.89592 30.80286 209 ft 12 kts 97°
2026-05-09 11:45 36.89582 30.80395 198 ft 14 kts 96°
2026-05-09 11:45 36.89571 30.80519 194 ft 15 kts 96°
2026-05-09 11:46 36.89561 30.80635 194 ft 11 kts 95°
2026-05-09 11:46 36.89610 30.80697 194 ft 13 kts
2026-05-09 11:46 36.89730 30.80714 201 ft 21 kts
2026-05-09 11:46 36.89883 30.80735 194 ft 20 kts
2026-05-09 11:47 36.89989 30.80749 206 ft 13 kts
2026-05-09 11:47 36.90040 30.80756 200 ft 0 kts
2026-05-09 11:48 36.90061 30.80759 201 ft 7 kts
2026-05-09 11:48 36.90148 30.80770 197 ft 18 kts
2026-05-09 11:48 36.90303 30.80791 198 ft 24 kts
2026-05-09 11:49 36.90477 30.80815 198 ft 26 kts
2026-05-09 11:49 36.90654 30.80839 199 ft 22 kts
2026-05-09 11:49 36.90792 30.80858 202 ft 18 kts
2026-05-09 11:49 36.90921 30.80876 202 ft 19 kts
2026-05-09 11:50 36.91042 30.80894 193 ft 16 kts
2026-05-09 11:50 36.91133 30.80934 204 ft 14 kts 58°
2026-05-09 11:50 36.91130 30.81060 203 ft 14 kts 96°
2026-05-09 11:50 36.91116 30.81136 208 ft 6 kts 142°
2026-05-09 11:51 36.91104 30.81139 203 ft 0 kts 186°
2026-05-09 11:52 36.91001 30.81123 197 ft 46 kts 187°
2026-05-09 11:52 36.90433 30.81046 204 ft 117 kts 187°
2026-05-09 11:53 36.89421 30.80901 241 ft 168 kts 188°
2026-05-09 11:53 36.88248 30.80709 1009 ft 171 kts 186°
2026-05-09 11:53 36.87028 30.80624 1638 ft 183 kts 174°
2026-05-09 11:53 36.85695 30.80911 1997 ft 208 kts 168°
2026-05-09 11:54 36.84223 30.81270 2661 ft 218 kts 169°
2026-05-09 11:54 36.82677 30.81665 3249 ft 236 kts 162°
2026-05-09 11:54 36.81295 30.82858 3751 ft 256 kts 127°
2026-05-09 11:54 36.80702 30.84997 4381 ft 270 kts 90°
2026-05-09 11:55 36.81213 30.87235 5253 ft 276 kts 57°
2026-05-09 11:56 36.89762 30.89299 9000 ft 287 kts 359°
2026-05-09 11:56 36.91765 30.89423 9843 ft 290 kts 359°
2026-05-09 11:56 36.93798 30.89565 10503 ft 299 kts 359°
2026-05-09 11:57 36.95941 30.89745 10844 ft 318 kts
2026-05-09 11:57 36.98198 30.89960 11269 ft 332 kts
2026-05-09 11:57 37.00514 30.90173 12000 ft 334 kts
2026-05-09 11:57 37.02846 30.90368 12723 ft 338 kts
2026-05-09 11:58 37.05204 30.90561 13462 ft 341 kts 360°
2026-05-09 11:58 37.07587 30.90751 14149 ft 346 kts 359°
2026-05-09 11:58 37.09995 30.90946 14804 ft 349 kts 359°
2026-05-09 11:58 37.12429 30.91138 15490 ft 351 kts 359°
2026-05-09 11:59 37.14873 30.91334 16162 ft 354 kts 359°
2026-05-09 11:59 37.17346 30.91529 16805 ft 356 kts 359°
2026-05-09 11:59 37.19830 30.91725 17441 ft 359 kts 359°
2026-05-09 11:59 37.22333 30.91922 18071 ft 362 kts 359°
2026-05-09 12:00 37.24853 30.92124 18630 ft 364 kts 359°
2026-05-09 12:00 37.27394 30.92321 19177 ft 366 kts 358°
2026-05-09 12:00 37.29952 30.92522 19683 ft 370 kts 358°
2026-05-09 12:00 37.32536 30.92726 20170 ft 373 kts 358°
2026-05-09 12:01 37.35104 30.92928 20679 ft 376 kts 358°
2026-05-09 12:01 37.37734 30.93134 21184 ft 380 kts 358°
2026-05-09 12:01 37.40419 30.93347 21736 ft 383 kts 358°
2026-05-09 12:01 37.43048 30.93553 22294 ft 386 kts 358°
2026-05-09 12:02 37.45743 30.93765 22813 ft 390 kts 358°
2026-05-09 12:02 37.48468 30.93980 23305 ft 394 kts 358°
2026-05-09 12:02 37.51217 30.94196 23759 ft 398 kts 358°
2026-05-09 12:02 37.53992 30.94416 24145 ft 401 kts 357°
2026-05-09 12:03 37.56784 30.94638 24599 ft 403 kts 357°
2026-05-09 12:03 37.59587 30.94858 25043 ft 404 kts 357°
2026-05-09 12:03 37.62408 30.95078 25419 ft 408 kts 357°
2026-05-09 12:03 37.65260 30.95304 25816 ft 411 kts 357°
2026-05-09 12:04 37.68121 30.95529 26232 ft 413 kts 357°
2026-05-09 12:04 37.71001 30.95756 26619 ft 416 kts 357°
2026-05-09 12:04 37.73900 30.95984 27024 ft 419 kts 357°
2026-05-09 12:04 37.76816 30.96213 27414 ft 421 kts 357°
2026-05-09 12:05 37.79743 30.96444 27790 ft 423 kts 357°
2026-05-09 12:05 37.82699 30.96677 28170 ft 426 kts 357°
2026-05-09 12:05 37.85667 30.96911 28533 ft 429 kts 357°
2026-05-09 12:05 37.88651 30.97147 28905 ft 431 kts 358°
2026-05-09 12:06 37.91656 30.97384 29260 ft 433 kts 358°
2026-05-09 12:06 37.94675 30.97622 29600 ft 436 kts 358°
2026-05-09 12:06 37.97715 30.97862 29936 ft 439 kts 358°
2026-05-09 12:06 38.00769 30.98103 30268 ft 441 kts 358°
2026-05-09 12:07 38.03841 30.98346 30553 ft 443 kts 358°
2026-05-09 12:07 38.06926 30.98590 30875 ft 445 kts 358°
2026-05-09 12:07 38.10021 30.98835 31162 ft 447 kts 358°
2026-05-09 12:07 38.13123 30.99080 31445 ft 448 kts 358°
2026-05-09 12:08 38.16242 30.99326 31734 ft 450 kts 358°
2026-05-09 12:08 38.19372 30.99574 32006 ft 451 kts 358°
2026-05-09 12:08 38.22513 30.99823 32270 ft 453 kts 358°
2026-05-09 12:08 38.25662 31.00073 32567 ft 454 kts 358°
2026-05-09 12:09 38.28814 31.00322 32915 ft 454 kts 358°
2026-05-09 12:09 38.31971 31.00571 33188 ft 455 kts 358°
2026-05-09 12:09 38.35116 31.00821 33593 ft 453 kts 358°
2026-05-09 12:10 38.44483 31.01565 34603 ft 450 kts 358°
2026-05-09 12:10 38.47588 31.01536 34856 ft 441 kts 345°
2026-05-09 12:10 38.50507 31.00530 35168 ft 431 kts 335°
2026-05-09 12:11 38.53350 30.99275 35382 ft 433 kts 335°
2026-05-09 12:11 38.56180 30.97982 35646 ft 432 kts 335°
2026-05-09 12:11 38.59013 30.96657 35942 ft 431 kts 334°
2026-05-09 12:11 38.61818 30.95324 36107 ft 432 kts 334°
2026-05-09 12:12 38.64631 30.93977 36112 ft 431 kts 334°
2026-05-09 12:12 38.70234 30.91283 36111 ft 430 kts 334°
2026-05-09 12:13 38.75856 30.88572 36105 ft 432 kts 334°
2026-05-09 12:13 38.81440 30.85876 36102 ft 432 kts 334°
2026-05-09 12:14 38.87068 30.83155 36100 ft 432 kts 334°
2026-05-09 12:14 38.92690 30.80431 36111 ft 432 kts 334°
2026-05-09 12:15 38.98320 30.77700 36102 ft 433 kts 334°
2026-05-09 12:15 39.03949 30.74963 36102 ft 433 kts 334°
2026-05-09 12:16 39.09583 30.72220 36101 ft 433 kts 334°
2026-05-09 12:16 39.15216 30.69472 36103 ft 433 kts 335°
2026-05-09 12:17 39.20855 30.66717 36092 ft 433 kts 335°
2026-05-09 12:17 39.26489 30.63960 36090 ft 433 kts 335°
2026-05-09 12:18 39.32129 30.61195 36082 ft 433 kts 335°
2026-05-09 12:18 39.37732 30.58443 36095 ft 433 kts 335°
2026-05-09 12:19 39.43368 30.55670 36076 ft 433 kts 335°
2026-05-09 12:19 39.49002 30.52894 36078 ft 434 kts 334°
2026-05-09 12:20 39.54624 30.50073 36060 ft 431 kts 331°
2026-05-09 12:20 39.60084 30.46841 36078 ft 432 kts 331°
2026-05-09 12:21 39.65566 30.43646 36093 ft 432 kts 331°
2026-05-09 12:21 39.71050 30.40453 36083 ft 432 kts 331°
2026-05-09 12:22 39.76537 30.37254 36098 ft 434 kts 332°
2026-05-09 12:22 39.82047 30.34035 36095 ft 434 kts 332°
2026-05-09 12:23 39.87554 30.30813 36089 ft 433 kts 332°
2026-05-09 12:23 39.93053 30.27590 36075 ft 433 kts 332°
2026-05-09 12:24 39.98555 30.24359 36073 ft 434 kts 332°
2026-05-09 12:24 40.04064 30.21119 36048 ft 433 kts 332°
2026-05-09 12:25 40.09538 30.17893 36054 ft 434 kts 332°
2026-05-09 12:25 40.15030 30.14651 36042 ft 433 kts 332°
2026-05-09 12:26 40.20524 30.11401 36041 ft 433 kts 332°
2026-05-09 12:26 40.26031 30.08139 36042 ft 435 kts 332°
2026-05-09 12:27 40.31547 30.04865 36040 ft 435 kts 332°
2026-05-09 12:27 40.37057 30.01589 36021 ft 435 kts 332°
2026-05-09 12:28 40.42567 29.98307 36025 ft 435 kts 332°
2026-05-09 12:28 40.48081 29.95016 36054 ft 435 kts 332°
2026-05-09 12:29 40.53590 29.91723 35995 ft 434 kts 332°
2026-05-09 12:29 40.59053 29.88451 36011 ft 434 kts 332°
2026-05-09 12:30 40.64536 29.85162 36052 ft 434 kts 332°
2026-05-09 12:30 40.72777 29.80206 36030 ft 435 kts 332°
2026-05-09 12:31 40.81043 29.75222 36031 ft 435 kts 332°
2026-05-09 12:32 40.86556 29.71890 36031 ft 435 kts 332°
2026-05-09 12:32 40.92020 29.68581 36032 ft 435 kts 332°
2026-05-09 12:33 40.97530 29.65239 36031 ft 435 kts 332°
2026-05-09 12:33 41.03020 29.61902 36032 ft 434 kts 332°
2026-05-09 12:34 41.08499 29.58568 36037 ft 434 kts 332°
2026-05-09 12:34 41.14000 29.55214 36061 ft 436 kts 332°
2026-05-09 12:35 41.19575 29.52062 36042 ft 436 kts 338°
2026-05-09 12:35 41.25379 29.49606 36049 ft 438 kts 340°
2026-05-09 12:36 41.31221 29.47326 36034 ft 437 kts 340°
2026-05-09 12:36 41.37079 29.45092 36036 ft 438 kts 340°
2026-05-09 12:37 41.42943 29.42859 36034 ft 438 kts 340°
2026-05-09 12:37 41.48810 29.40621 36039 ft 438 kts 340°
2026-05-09 12:38 41.54657 29.38387 36037 ft 438 kts 340°
2026-05-09 12:38 41.60511 29.36146 36040 ft 437 kts 340°
2026-05-09 12:39 41.66366 29.33900 36044 ft 437 kts 341°
2026-05-09 12:39 41.72226 29.31648 36036 ft 439 kts 341°
2026-05-09 12:40 41.78093 29.29389 36034 ft 439 kts 341°
2026-05-09 12:40 41.82962 29.27511 36043 ft 438 kts 341°
2026-05-09 12:41 41.88827 29.25246 36029 ft 438 kts 341°
2026-05-09 12:41 41.94710 29.22968 36040 ft 440 kts 341°
2026-05-09 12:42 42.00590 29.20687 36033 ft 440 kts 341°
2026-05-09 12:42 42.06474 29.18401 36034 ft 440 kts 341°
2026-05-09 12:43 42.12364 29.16109 36043 ft 441 kts 341°
2026-05-09 12:43 42.17973 29.12996 36023 ft 432 kts 320°
2026-05-09 12:44 42.22726 29.07985 35999 ft 434 kts 319°
2026-05-09 12:44 42.27410 29.02918 36031 ft 434 kts 319°
2026-05-09 12:45 42.32093 28.97778 36030 ft 434 kts 319°
2026-05-09 12:45 42.36774 28.92622 36031 ft 434 kts 319°
2026-05-09 12:46 42.41470 28.87436 36033 ft 436 kts 319°
2026-05-09 12:46 42.46176 28.82231 36031 ft 436 kts 319°
2026-05-09 12:47 42.50875 28.77023 36030 ft 436 kts 319°
2026-05-09 12:47 42.55566 28.71813 36029 ft 436 kts 319°
2026-05-09 12:48 42.60256 28.66593 36024 ft 436 kts 319°
2026-05-09 12:48 42.64951 28.61358 36024 ft 436 kts 319°
2026-05-09 12:49 42.69617 28.56144 36018 ft 437 kts 319°
2026-05-09 12:49 42.74315 28.50884 36014 ft 437 kts 319°
2026-05-09 12:50 42.79008 28.45619 36011 ft 437 kts 318°
2026-05-09 12:50 42.83697 28.40348 36019 ft 437 kts 319°
2026-05-09 12:51 42.88379 28.35074 36011 ft 436 kts 318°
2026-05-09 12:51 42.93053 28.29798 36027 ft 436 kts 318°
2026-05-09 12:52 42.97740 28.24497 36018 ft 438 kts 318°
2026-05-09 12:52 43.02430 28.19182 36023 ft 438 kts 318°
2026-05-09 12:53 43.07109 28.13868 36016 ft 437 kts 318°
2026-05-09 12:53 43.11780 28.08551 36004 ft 437 kts 318°
2026-05-09 12:54 43.16417 28.03264 35996 ft 437 kts 318°
2026-05-09 12:54 43.21082 27.97933 35990 ft 437 kts 318°
2026-05-09 12:55 43.25744 27.92594 35996 ft 436 kts 318°
2026-05-09 12:55 43.30397 27.87255 35995 ft 436 kts 318°
2026-05-09 12:56 43.35053 27.81903 35992 ft 436 kts 318°
2026-05-09 12:56 43.39706 27.76542 35994 ft 436 kts 318°
2026-05-09 12:57 43.44352 27.71177 35993 ft 436 kts 318°
2026-05-09 12:57 43.49001 27.65798 35978 ft 436 kts 318°
2026-05-09 12:58 43.53641 27.60419 35979 ft 437 kts 318°
2026-05-09 12:58 43.58297 27.55009 35976 ft 437 kts 318°
2026-05-09 12:59 43.62910 27.49639 35976 ft 437 kts 318°
2026-05-09 12:59 43.67557 27.44217 35973 ft 437 kts 318°
2026-05-09 13:00 43.72197 27.38793 35969 ft 437 kts 318°
2026-05-09 13:00 43.76836 27.33357 35971 ft 436 kts 318°
2026-05-09 13:01 43.81465 27.27923 35971 ft 436 kts 318°
2026-05-09 13:01 43.86109 27.22458 35968 ft 439 kts 318°
2026-05-09 13:02 43.90761 27.16974 35974 ft 439 kts 318°
2026-05-09 13:02 43.95410 27.11480 35955 ft 438 kts 318°
2026-05-09 13:03 44.00019 27.06024 35971 ft 439 kts 318°
2026-05-09 13:03 44.04657 27.00520 35971 ft 438 kts 318°
2026-05-09 13:04 44.09292 26.95009 35973 ft 438 kts 317°
2026-05-09 13:04 44.13927 26.89486 35981 ft 440 kts 317°
2026-05-09 13:05 44.18592 26.83915 35980 ft 441 kts 317°
2026-05-09 13:05 44.23252 26.78338 35986 ft 441 kts 317°
2026-05-09 13:06 44.27909 26.72751 35983 ft 441 kts 317°
2026-05-09 13:06 44.32558 26.67163 35984 ft 441 kts 317°
2026-05-09 13:07 44.37214 26.61554 35991 ft 441 kts 317°
2026-05-09 13:07 44.41865 26.55940 35991 ft 442 kts 317°
2026-05-09 13:08 44.46526 26.50300 36004 ft 443 kts 317°
2026-05-09 13:08 44.51183 26.44654 36009 ft 443 kts 317°
2026-05-09 13:09 44.55818 26.39022 36002 ft 443 kts 317°
2026-05-09 13:09 44.60470 26.33355 36009 ft 443 kts 317°
2026-05-09 13:10 44.65124 26.27675 36008 ft 443 kts 317°
2026-05-09 13:10 44.69777 26.21983 36034 ft 443 kts 317°
2026-05-09 13:11 44.74440 26.16265 36027 ft 445 kts 317°
2026-05-09 13:11 44.79108 26.10531 36009 ft 445 kts 317°
2026-05-09 13:12 44.83770 26.04789 36020 ft 445 kts 317°
2026-05-09 13:12 44.88433 25.99034 36031 ft 445 kts 317°
2026-05-09 13:13 44.93087 25.93277 36022 ft 444 kts 317°
2026-05-09 13:13 44.97731 25.87520 36026 ft 444 kts 317°
2026-05-09 13:14 45.02371 25.81756 36024 ft 445 kts 317°
2026-05-09 13:16 45.20958 25.58545 37546 ft 443 kts 316°
2026-05-09 13:16 45.23260 25.55656 37881 ft 441 kts 316°
2026-05-09 13:16 45.25553 25.52775 38080 ft 440 kts 316°
2026-05-09 13:17 45.30215 25.47174 38050 ft 436 kts 319°
2026-05-09 13:17 45.34952 25.41765 38020 ft 437 kts 319°
2026-05-09 13:18 45.39691 25.36319 38042 ft 438 kts 319°
2026-05-09 13:18 45.44434 25.30853 38043 ft 438 kts 319°
2026-05-09 13:19 45.49165 25.25390 38032 ft 438 kts 319°
2026-05-09 13:19 45.53893 25.19917 38034 ft 437 kts 319°
2026-05-09 13:20 45.58589 25.14470 38044 ft 437 kts 319°
2026-05-09 13:20 45.63313 25.08977 38037 ft 438 kts 319°
2026-05-09 13:21 45.68047 25.03460 38064 ft 439 kts 318°
2026-05-09 13:21 45.72775 24.97939 38010 ft 437 kts 318°
2026-05-09 13:22 45.77526 24.92496 38041 ft 439 kts 321°
2026-05-09 13:22 45.82388 24.87236 38085 ft 438 kts 320°
2026-05-09 13:23 45.94517 24.73971 38054 ft 438 kts 320°
2026-05-09 13:24 45.99357 24.68655 38047 ft 438 kts 320°
2026-05-09 13:24 46.04169 24.63359 38054 ft 438 kts 320°
2026-05-09 13:25 46.09005 24.58023 38054 ft 438 kts 320°
2026-05-09 13:26 46.16251 24.50006 38033 ft 435 kts 320°
2026-05-09 13:26 46.21067 24.44662 38058 ft 437 kts 320°
2026-05-09 13:27 46.25880 24.39311 38042 ft 436 kts 320°
2026-05-09 13:27 46.30695 24.33944 38055 ft 437 kts 320°
2026-05-09 13:28 46.34688 24.29484 38045 ft 436 kts 320°
2026-05-09 13:28 46.40276 24.23228 38053 ft 437 kts 320°
2026-05-09 13:29 46.45078 24.17840 38044 ft 437 kts 319°
2026-05-09 13:29 46.49094 24.13322 38044 ft 436 kts 319°
2026-05-09 13:30 46.53902 24.07905 38045 ft 438 kts 319°
2026-05-09 13:30 46.58679 24.02509 38047 ft 438 kts 319°
2026-05-09 13:31 46.63485 23.97068 38059 ft 438 kts 319°
2026-05-09 13:31 46.68284 23.91623 38055 ft 437 kts 319°
2026-05-09 13:32 46.73079 23.86169 38043 ft 437 kts 319°
2026-05-09 13:32 46.80266 23.77970 38034 ft 437 kts 319°
2026-05-09 13:33 46.85049 23.72499 38049 ft 437 kts 319°
2026-05-09 13:33 46.89830 23.67017 38056 ft 437 kts 319°
2026-05-09 13:34 46.94611 23.61522 38060 ft 437 kts 319°
2026-05-09 13:34 46.99382 23.56024 38066 ft 436 kts 319°
2026-05-09 13:35 47.04139 23.50532 38031 ft 434 kts 319°
2026-05-09 13:35 47.08891 23.45031 38050 ft 435 kts 318°
2026-05-09 13:36 47.13613 23.39553 38037 ft 435 kts 318°
2026-05-09 13:36 47.18362 23.34031 38043 ft 436 kts 318°
2026-05-09 13:37 47.23112 23.28494 38042 ft 435 kts 318°
2026-05-09 13:37 47.27857 23.22950 38043 ft 436 kts 318°
2026-05-09 13:38 47.32602 23.17394 38037 ft 436 kts 318°
2026-05-09 13:38 47.37343 23.11828 38054 ft 436 kts 318°
2026-05-09 13:39 47.42086 23.06248 38055 ft 436 kts 318°
2026-05-09 13:39 47.46825 23.00659 38038 ft 435 kts 317°
2026-05-09 13:40 47.51553 22.95068 38046 ft 435 kts 317°
2026-05-09 13:40 47.56275 22.89473 38049 ft 435 kts 317°
2026-05-09 13:41 47.60971 22.83894 38046 ft 435 kts 317°
2026-05-09 13:41 47.65722 22.78236 38056 ft 435 kts 317°
2026-05-09 13:42 47.70406 22.72646 38047 ft 435 kts 317°
2026-05-09 13:42 47.75120 22.67007 38045 ft 435 kts 317°
2026-05-09 13:43 47.79832 22.61355 38040 ft 435 kts 317°
2026-05-09 13:43 47.84542 22.55693 38034 ft 435 kts 317°
2026-05-09 13:44 47.89249 22.50021 38043 ft 435 kts 317°
2026-05-09 13:44 47.93935 22.44360 38035 ft 433 kts 317°
2026-05-09 13:45 47.98621 22.38686 38046 ft 434 kts 317°
2026-05-09 13:45 48.03306 22.32999 38040 ft 434 kts 317°
2026-05-09 13:46 48.07994 22.27295 38039 ft 435 kts 317°
2026-05-09 13:46 48.12684 22.21576 38041 ft 434 kts 316°
2026-05-09 13:47 48.17355 22.15868 38042 ft 433 kts 316°
2026-05-09 13:47 48.22097 22.10280 38027 ft 437 kts 325°
2026-05-09 13:48 48.27719 22.06625 38036 ft 442 kts 332°
2026-05-09 13:48 48.33347 22.02987 38053 ft 444 kts 332°
2026-05-09 13:49 48.39023 21.99295 38055 ft 444 kts 332°
2026-05-09 13:49 48.44695 21.95595 38050 ft 444 kts 332°
2026-05-09 13:50 48.50368 21.91886 38056 ft 444 kts 332°
2026-05-09 13:50 48.55838 21.88301 38062 ft 445 kts 332°
2026-05-09 13:51 48.61518 21.84569 38070 ft 446 kts 332°
2026-05-09 13:51 48.67209 21.80820 38076 ft 445 kts 332°
2026-05-09 13:52 48.72892 21.77068 38079 ft 445 kts 332°
2026-05-09 13:52 48.78575 21.73306 38075 ft 445 kts 332°
2026-05-09 13:53 48.84257 21.69536 38077 ft 447 kts 332°
2026-05-09 13:53 48.89963 21.65740 38091 ft 447 kts 332°
2026-05-09 13:54 48.95662 21.61939 38090 ft 447 kts 332°
2026-05-09 13:54 49.01352 21.58136 38115 ft 447 kts 332°
2026-05-09 13:55 49.07004 21.54347 38100 ft 447 kts 332°
2026-05-09 13:55 49.12689 21.50527 38112 ft 447 kts 332°
2026-05-09 13:56 49.18380 21.46694 38116 ft 447 kts 332°
2026-05-09 13:56 49.24077 21.42847 38110 ft 447 kts 332°
2026-05-09 13:57 49.29762 21.38998 38122 ft 447 kts 332°
2026-05-09 13:57 49.35451 21.35139 38138 ft 447 kts 332°
2026-05-09 13:58 49.41146 21.31262 38138 ft 448 kts 332°
2026-05-09 13:58 49.46844 21.27374 38136 ft 448 kts 332°
2026-05-09 13:59 49.52541 21.23477 38144 ft 448 kts 332°
2026-05-09 13:59 49.58199 21.19598 38142 ft 448 kts 332°
2026-05-09 14:00 49.62015 21.16976 38156 ft 448 kts 332°
2026-05-09 14:00 49.69599 21.11751 38146 ft 449 kts 332°
2026-05-09 14:01 49.75302 21.07811 38141 ft 449 kts 332°
2026-05-09 14:01 49.80997 21.03865 38144 ft 449 kts 332°
2026-05-09 14:02 49.86693 20.99908 38143 ft 448 kts 332°
2026-05-09 14:02 49.92389 20.95942 38152 ft 449 kts 332°
2026-05-09 14:03 49.98104 20.91952 37862 ft 449 kts 332°
2026-05-09 14:03 50.00905 20.89993 37592 ft 445 kts 332°
2026-05-09 14:03 50.03722 20.88020 37328 ft 443 kts 332°
2026-05-09 14:04 50.06510 20.86064 36958 ft 437 kts 332°
2026-05-09 14:04 50.09277 20.84121 36334 ft 436 kts 332°
2026-05-09 14:04 50.12044 20.82175 35767 ft 435 kts 332°
2026-05-09 14:04 50.14793 20.80240 35300 ft 431 kts 332°
2026-05-09 14:05 50.17518 20.78319 34855 ft 428 kts 332°
2026-05-09 14:05 50.20225 20.76408 34357 ft 427 kts 332°
2026-05-09 14:05 50.22927 20.74499 33775 ft 426 kts 332°
2026-05-09 14:05 50.25620 20.72593 33216 ft 424 kts 332°
2026-05-09 14:06 50.28295 20.70698 32732 ft 420 kts 332°
2026-05-09 14:06 50.30947 20.68817 32284 ft 417 kts 332°
2026-05-09 14:06 50.33576 20.66950 31815 ft 413 kts 332°
2026-05-09 14:06 50.36187 20.65093 31323 ft 411 kts 332°
2026-05-09 14:07 50.38779 20.63248 30859 ft 408 kts 332°
2026-05-09 14:07 50.41354 20.61412 30405 ft 405 kts 332°
2026-05-09 14:07 50.43911 20.59587 29913 ft 402 kts 332°
2026-05-09 14:07 50.46454 20.57770 29416 ft 399 kts 332°
2026-05-09 14:08 50.48959 20.55978 28980 ft 394 kts 332°
2026-05-09 14:08 50.51442 20.54200 28561 ft 390 kts 332°
2026-05-09 14:08 50.53895 20.52441 28185 ft 385 kts 332°
2026-05-09 14:08 50.56316 20.50704 27794 ft 380 kts 332°
2026-05-09 14:09 50.58680 20.49005 27393 ft 377 kts 332°
2026-05-09 14:09 50.61055 20.47296 26999 ft 373 kts 332°
2026-05-09 14:09 50.63409 20.45601 26606 ft 370 kts 332°
2026-05-09 14:09 50.65739 20.43922 26218 ft 367 kts 332°
2026-05-09 14:10 50.70382 20.40568 25445 ft 362 kts 332°
2026-05-09 14:10 50.72631 20.38941 25093 ft 359 kts 332°
2026-05-09 14:10 50.74897 20.37301 24716 ft 357 kts 332°
2026-05-09 14:11 50.77149 20.35668 24345 ft 355 kts 332°
2026-05-09 14:11 50.79390 20.34042 23976 ft 353 kts 332°
2026-05-09 14:11 50.81613 20.32427 23589 ft 351 kts 332°
2026-05-09 14:11 50.83829 20.30816 23179 ft 349 kts 332°
2026-05-09 14:12 50.86026 20.29216 22805 ft 346 kts 332°
2026-05-09 14:12 50.88198 20.27633 22453 ft 342 kts 332°
2026-05-09 14:12 50.90350 20.26064 22110 ft 339 kts 332°
2026-05-09 14:12 50.92480 20.24508 21762 ft 335 kts 332°
2026-05-09 14:13 50.94590 20.22966 21417 ft 332 kts 332°
2026-05-09 14:14 51.08847 20.12505 19128 ft 314 kts 332°
2026-05-09 14:15 51.10156 20.11540 18918 ft 312 kts 332°
2026-05-09 14:15 51.12118 20.10094 18607 ft 310 kts 332°
2026-05-09 14:15 51.14070 20.08654 18261 ft 308 kts 332°
2026-05-09 14:15 51.16011 20.07220 17916 ft 305 kts 332°
2026-05-09 14:16 51.17929 20.05803 17596 ft 302 kts 331°
2026-05-09 14:16 51.19822 20.04402 17281 ft 299 kts 331°
2026-05-09 14:16 51.21700 20.03011 16983 ft 296 kts 331°
2026-05-09 14:16 51.23556 20.01635 16686 ft 293 kts 331°
2026-05-09 14:17 51.25419 20.00253 16366 ft 298 kts 332°
2026-05-09 14:17 51.27313 19.98847 16007 ft 303 kts 332°
2026-05-09 14:17 51.29230 19.97422 15640 ft 304 kts 332°
2026-05-09 14:17 51.31153 19.95991 15282 ft 304 kts 332°
2026-05-09 14:18 51.33061 19.94571 14943 ft 302 kts 332°
2026-05-09 14:18 51.34955 19.93159 14629 ft 299 kts 332°
2026-05-09 14:18 51.36835 19.91756 14328 ft 297 kts 332°
2026-05-09 14:18 51.38701 19.90363 14018 ft 295 kts 332°
2026-05-09 14:19 51.40554 19.88978 13680 ft 293 kts 332°
2026-05-09 14:19 51.42390 19.87605 13356 ft 290 kts 332°
2026-05-09 14:19 51.44207 19.86245 13045 ft 287 kts 332°
2026-05-09 14:19 51.46003 19.84899 12753 ft 283 kts 332°
2026-05-09 14:20 51.47779 19.83567 12459 ft 280 kts 332°
2026-05-09 14:20 51.49510 19.82267 12170 ft 277 kts 332°
2026-05-09 14:20 51.51247 19.80952 11879 ft 274 kts 329°
2026-05-09 14:21 51.53889 19.76784 11286 ft 264 kts 309°
2026-05-09 14:21 51.55066 19.74536 11028 ft 261 kts 308°
2026-05-09 14:21 51.56235 19.72281 10771 ft 265 kts 308°
2026-05-09 14:21 51.57422 19.69969 10491 ft 270 kts 308°
2026-05-09 14:22 51.58619 19.67626 10211 ft 272 kts 308°
2026-05-09 14:22 51.59806 19.65296 10056 ft 268 kts 308°
2026-05-09 14:22 51.60978 19.62992 9828 ft 265 kts 309°
2026-05-09 14:22 51.62141 19.60699 9520 ft 263 kts 309°
2026-05-09 14:23 51.63294 19.58424 9230 ft 261 kts 309°
2026-05-09 14:23 51.64433 19.56174 8946 ft 258 kts 310°
2026-05-09 14:23 51.65558 19.53948 8672 ft 255 kts 310°
2026-05-09 14:23 51.66669 19.51750 8392 ft 252 kts 310°
2026-05-09 14:24 51.67770 19.49569 8136 ft 249 kts 310°
2026-05-09 14:24 51.68857 19.47412 7881 ft 247 kts 311°
2026-05-09 14:24 51.69943 19.45258 7614 ft 250 kts 311°
2026-05-09 14:24 51.71050 19.43059 7342 ft 255 kts 311°
2026-05-09 14:25 51.72176 19.40821 7056 ft 258 kts 311°
2026-05-09 14:25 51.73309 19.38567 6785 ft 259 kts 312°
2026-05-09 14:25 51.74432 19.36332 6503 ft 259 kts 312°
2026-05-09 14:25 51.75560 19.34082 6198 ft 257 kts 312°
2026-05-09 14:26 51.76673 19.31859 6001 ft 251 kts 312°
2026-05-09 14:26 51.77751 19.29707 5886 ft 241 kts 312°
2026-05-09 14:26 51.78780 19.27653 5811 ft 231 kts 312°
2026-05-09 14:26 51.79592 19.25460 5587 ft 230 kts 288°
2026-05-09 14:27 51.79650 19.22875 5311 ft 233 kts 260°
2026-05-09 14:27 51.79173 19.20375 5070 ft 232 kts 253°
2026-05-09 14:27 51.78653 19.17911 4797 ft 231 kts 253°
2026-05-09 14:27 51.78128 19.15474 4555 ft 226 kts 251°
2026-05-09 14:28 51.77245 19.13441 4263 ft 222 kts 217°
2026-05-09 14:28 51.75853 19.12564 4064 ft 212 kts 184°
2026-05-09 14:28 51.74426 19.12601 3940 ft 199 kts 176°
2026-05-09 14:28 51.73104 19.12950 3811 ft 189 kts 161°
2026-05-09 14:29 51.71872 19.13622 3716 ft 186 kts 159°
2026-05-09 14:29 51.70645 19.14312 3631 ft 187 kts 158°
2026-05-09 14:29 51.69417 19.15002 3494 ft 187 kts 159°
2026-05-09 14:29 51.68316 19.16024 3206 ft 182 kts 128°
2026-05-09 14:30 51.67817 19.17810 2928 ft 172 kts 91°
2026-05-09 14:30 51.67963 19.19679 2793 ft 168 kts 70°
2026-05-09 14:30 51.68302 19.21492 2690 ft 169 kts 69°
2026-05-09 14:30 51.68646 19.23232 2552 ft 162 kts 69°
2026-05-09 14:31 51.68962 19.24919 2313 ft 152 kts 71°
2026-05-09 14:31 51.69279 19.26509 2035 ft 146 kts 68°
2026-05-09 14:31 51.69613 19.28037 1773 ft 144 kts 67°
2026-05-09 14:31 51.69943 19.29562 1592 ft 144 kts 68°
2026-05-09 14:32 51.70257 19.31116 1389 ft 146 kts 68°
2026-05-09 14:32 51.70602 19.32649 1188 ft 146 kts 67°
2026-05-09 14:32 51.70944 19.34189 1011 ft 145 kts 66°
2026-05-09 14:32 51.71285 19.35719 808 ft 145 kts 66°
2026-05-09 14:33 51.71623 19.37242 640 ft 145 kts 67°
2026-05-09 14:33 51.71935 19.38646 589 ft 112 kts 70°
2026-05-09 14:33 51.72142 19.39603 595 ft 69 kts 71°
2026-05-09 14:33 51.72250 19.40103 611 ft 31 kts 70°
2026-05-09 14:34 51.72313 19.40388 614 ft 20 kts 70°
2026-05-09 14:34 51.72342 19.40515 624 ft 9 kts 70°
2026-05-09 14:34 51.72367 19.40587 623 ft 7 kts 31°
2026-05-09 14:34 51.72419 19.40580 626 ft 8 kts 339°
2026-05-09 14:35 51.72473 19.40548 625 ft 8 kts 340°
2026-05-09 14:35 51.72528 19.40496 622 ft 10 kts 317°
2026-05-09 14:35 51.72576 19.40410 625 ft 9 kts 311°
2026-05-09 14:35 51.72587 19.40309 617 ft 8 kts 268°
2026-05-09 14:36 51.72586 19.40271 617 ft 0 kts 268°
2026-05-09 14:36 51.72583 19.40245 617 ft 4 kts 255°
2026-05-09 14:37 51.72576 19.40188 622 ft 6 kts 282°
2026-05-09 14:37 51.72610 19.40152 622 ft 5 kts 340°
2026-05-09 14:37 51.72615 19.40149 621 ft 0 kts 340°